Location: Asheville, NC
(35.6000°N, 82.5500°W)
Time: 19:11:21

XW-2A - Pass Details

Date: 10 March 2018
Orbit: 436 x 455 km, 97.4° (Epoch: 20 March)

Event Time Altitude Azimuth Distance (km) Brightness Sun altitude
Exits shadow 19:26:49 - 155° (SSE) 2,340 ? -11.7°
Reaches altitude 10° 19:28:44 10° 149° (SSE) 1,535 ? -12.0°
Maximum altitude 19:31:53 45° 75° (ENE) 605 ? -12.7°
Drops below altitude 10° 19:35:03 10° 2° (N) 1,548 ? -13.3°
Sets 19:37:07 0° 356° (N) 2,422 ? -13.7°
